Voltar ao catálogo

DMSP 5D-2 F13

USA 109

AtivoMeteoSSO
NORAD 23533·PAYLOAD·🇺🇸 United States

Lançado Mar 24, 1995 de Vandenberg Space Force Base

Loading…

Próximas Passagens (próximas 24 horas)

TLE

AtualizadoSource: Space-Track

Época: Sep 14, 2026, 15:33 UTC

1 23533U 95015A   26257.64794161  .00000030  00000-0  36709-4 0  9998
2 23533  98.8039 270.6917 0005650 255.8239 242.1691 14.17043288625867

Acompanhe DMSP 5D-2 F13 em tempo real com AllMySat

Download on the App Store